Regional Weather Roundup
Issued by NWS

Home | Current Version | Previous Version | Graphics & Text | Print | Product List | Glossary Off
Versions: 1 2 3 4 5 6 7 8 9 10 11 12 13 14 15 16 17 18 19 20 21 22 23 24 25 26 27 28 29 30 31 32 33 34 35 36 37 38 39 40 41 42 43 44 45 46 47 48 49 50

769
ASUS43 KDTX 090210
RWRMI
MICHIGAN HOURLY REGIONAL WEATHER ROUNDUP
NATIONAL WEATHER SERVICE DETROIT/PONTIAC MI
900 PM EST MON FEB 08 2016

NOTE: "FAIR" INDICATES FEW OR NO CLOUDS BELOW 12,000 FEET WITH NO
SIGNIFICANT WEATHER AND/OR OBSTRUCTION TO VISIBILITY.

MIZ047>049-052>055-059>063-066>070-074>076-081>083-090300-
SOUTHEAST LOWER MICHIGAN

CITY           SKY/WX    TMP DP  RH WIND       PRES   REMARKS
ADRIAN         CLOUDY    32  27  81 NW10      29.62S WCI  24
ALMA           CLOUDY    35  27  72 W7        29.59F WCI  29
ANN ARBOR      CLOUDY    33  27  78 W7        29.59S WCI  27
BAD AXE        LGT SNOW  33  32  94 W6        29.55S WCI  28
CARO           CLOUDY    36  28  75 W5        29.55S WCI  32
DETROIT CITY   CLOUDY    38  28  67 W8        29.58F WCI  32
DETROIT        CLOUDY    35  31  85 W6        29.60S WCI  30
FLINT          CLOUDY    37  28  70 SW8       29.57F WCI  31
GROSSE ILE     CLOUDY    36  32  87 CALM      29.58F
HILLSDALE      CLOUDY    31  29  91 W10       29.60F WCI  22
HOWELL         MOCLDY    33  29  84 W8        29.58F WCI  26

CITY           SKY/WX    TMP DP  RH WIND       PRES   REMARKS
JACKSON        CLOUDY    32  27  81 W12       29.60F WCI  23
LAMBERTVILLE   CLOUDY    33  28  79 W8        29.62S WCI  27
LANSING        CLOUDY    34  29  82 W10       29.60F WCI  26
LAPEER         CLOUDY    36  29  77 W6        29.56S WCI  31
MASON          CLOUDY    33  30  87 W6        29.59F WCI  28
MONROE         CLOUDY    34  31  87 W6        29.59F WCI  29
MT. CLEMENS    MOCLDY    38  27  63 W8        29.55F WCI  32
PONTIAC        MOCLDY    34  28  79 W7        29.56S WCI  28
PORT HOPE        N/A     33  32  96 NW9       29.52F WCI  25
PORT HURON     FLURRIES  34  32  93 SW3       29.56F
TRI CITIES     CLOUDY    37  25  61 W9        29.57F WCI  30
MIDLAND        CLOUDY    35  25  66 W6        29.57S WCI  30
TROY           CLOUDY    38  29  71 W7        29.59F WCI  32
SAGINAW HB     CLOUDY    36  28  75 W8        29.56F WCI  29
$$
MIZ043>046-050>051-056>058-064>065-071>073-077>080-090300-
SOUTHWEST LOWER MICHIGAN

CITY           SKY/WX    TMP DP  RH WIND       PRES   REMARKS
BATTLE CREEK   LGT SNOW  31  28  89 W14       29.63S FOG     WCI  21
BENTON HARBOR  LGT SNOW  30  26  85 W10       29.69F FOG     WCI  21
BIG RAPIDS     CLOUDY    35  29  80 N6        29.59S WCI  30
COLDWATER      CLOUDY    31  30  94 W12G17    29.63S WCI  22
FREMONT        MOCLDY    32  32 100 W3        29.61F
HOLLAND        CLOUDY    33  30  88 W8        29.65F WCI  26
GRAND RAPIDS   LGT SNOW  33  31  92 W8        29.62F FOG     WCI  26
IONIA          CLOUDY    33  29  86 W9        29.60S WCI  25
KALAMAZOO      FLURRIES  31  27  85 W10       29.64F WCI  22
LUDINGTON      LGT SNOW  31  29  94 N13G22    29.65S WCI  21
MARSHALL       FLURRIES  32  30  91 W10       29.61F WCI  24
MOUNT PLEASANT CLOUDY    35  26  69 W5        29.58S WCI  31
MUSKEGON       CLOUDY    34  29  82 W6        29.63F WCI  29
SOUTH HAVEN    LGT SNOW  31  30  95 W7        29.67F WCI  24
$$
MIZ016>042-090300-
NORTHERN LOWER MICHIGAN

CITY           SKY/WX    TMP DP  RH WIND       PRES   REMARKS
ALPENA         CLOUDY    35  32  88 NW10      29.58F WCI  27
BEAVER ISLAND  CLOUDY    24  20  85 NW13G21   29.68S WCI  13
BELLAIRE       CLOUDY    30  27  86 N6        29.65F WCI  24
CADILLAC       CLOUDY    31  29  94 NW13      29.59S WCI  21
CHARLEVOIX     CLOUDY    28  25  89 N15G23    29.69S WCI  17
FRANKFORT      FLURRIES  28  24  85 N6G17     29.68R WCI  22
GAYLORD        CLOUDY    31  29  92 VRB7      29.58F FOG     WCI  24
GRAYLING       CLOUDY    32  30  91 NW12      29.59F WCI  23
HARBOR SPRINGS FLURRIES  29  25  86 NW6       29.64S WCI  23
HOUGHTON LAKE  CLOUDY    33  28  81 NW12      29.57S WCI  24
MANISTEE       CLOUDY    30  25  80 N10G16    29.66S WCI  21
OSCODA         RAIN      33  33  96 NW5       29.56F WCI  29
PELLSTON       CLOUDY    28  24  85 NW15      29.65S WCI  16
ROGERS CITY    CLOUDY    33  31  93 N14       29.61S WCI  23
TRAVERSE CITY  FLURRIES  31  25  78 N12       29.65S WCI  22
$$
MIZ007>008-015-090300-
EASTERN UPPER MICHIGAN

CITY           SKY/WX    TMP DP  RH WIND       PRES   REMARKS
KINROSS        CLOUDY    27  27 100 NW10G17   29.63F WCI  17
MACKINAC ISLAN CLOUDY    28  28  99 NW10G17   29.63F WCI  18
NEWBERRY       CLOUDY    23  20  88 NW6       29.67S WCI  16
S. S. MARIE    CLOUDY    29  25  85 NW13      29.63F WCI  19
MUNISING         N/A     20  13  74 N21G29    29.73F WCI   4
$$
MIZ004>006-011>014-085-090300-
CENTRAL UPPER MICHIGAN

CITY           SKY/WX    TMP DP  RH WIND       PRES   REMARKS
MANISTIQUE     CLOUDY    20  13  76 NW14G21   29.70S WCI   6
ESCANABA       CLOUDY    18  10  73 N12G18    29.74S WCI   5
MENOMINEE      CLOUDY    19  12  73 N8        29.74F WCI   9
SAWYER-GWINN   LGT SNOW  12   9  85 NW12      29.72S WCI  -2
$$
MIZ001>003-009>011-084-090300-
WESTERN UPPER MICHIGAN

CITY           SKY/WX    TMP DP  RH WIND       PRES   REMARKS
IRON MOUNTAIN  LGT SNOW  16   9  74 N15G23    29.73R WCI   1
HOUGHTON       LGT SNOW  14   8  77 N15       29.77R WCI  -1
COPPER HARBOR    N/A     17  14  88 N28G33    29.78R WCI  -2
IRONWOOD       CLOUDY    12  10  92 NW13      29.79S WCI  -3
$$

ABBREVIATIONS USED IN REMARKS
   TC - TEMPERATURE IN CELSIUS
  WCI - WIND CHILL INDEX
   HX - HEAT INDEX
  VSB - VISIBILITY





USA.gov is the U.S. government's official web portal to all federal, state and local government web resources and services.